| time (UTC) | temp C | wind direction | speed KPH | gust KPH | rain 1hr cm | rain 24hr cm | rain mn cm | humidity % | barometer mb |
| 20260508043336 | 3 | 266 | 0.0 | 0.0 | 0.00 | 0.00 | 0.00 | 39 | 1025.8 |
| 20260508041850 | 4 | 266 | 0.0 | 0.0 | 0.00 | 0.00 | 0.00 | 36 | 1025.8 |
| 20260508040343 | 4 | 266 | 0.0 | 3.2 | 0.00 | 0.00 | 0.00 | 31 | 1025.8 |
| 20260508034837 | 5 | 266 | 0.0 | 3.2 | 0.00 | 0.00 | 0.00 | 34 | 1025.9 |
| 20260508033332 | 5 | 266 | 0.0 | 0.0 | 0.00 | 0.00 | 0.00 | 29 | 1025.6 |
| 20260508031844 | 6 | 266 | 0.0 | 3.2 | 0.00 | 0.00 | 0.00 | 26 | 1025.5 |
| 20260508030317 | 8 | 266 | 0.0 | 4.8 | 0.00 | 0.00 | 0.00 | 25 | 1025.4 |
| 20260508024811 | 10 | 266 | 0.0 | 0.0 | 0.00 | 0.00 | 0.00 | 19 | 1025.2 |
| 20260508023326 | 11 | 266 | 0.0 | 12.9 | 0.00 | 0.00 | 0.00 | 15 | 1025.3 |
| 20260508021841 | 12 | 264 | 1.6 | 11.3 | 0.00 | 0.00 | 0.00 | 13 | 1024.8 |
| 20260508020314 | 12 | 280 | 4.8 | 16.1 | 0.00 | 0.00 | 0.00 | 12 | 1024.8 |
| 20260508014828 | 13 | 263 | 1.6 | 16.1 | 0.00 | 0.00 | 0.00 | 12 | 1024.7 |
| 20260508013324 | 14 | 286 | 6.4 | 16.1 | 0.00 | 0.00 | 0.00 | 11 | 1024.6 |
| 20260508011816 | 15 | 280 | 8.0 | 17.7 | 0.00 | 0.00 | 0.00 | 9 | 1024.7 |
| 20260508010314 | 16 | 267 | 4.8 | 14.5 | 0.00 | 0.00 | 0.00 | 9 | 1024.6 |
| 20260508004828 | 17 | 259 | 6.4 | 19.3 | 0.00 | 0.00 | 0.00 | 9 | 1024.5 |
| 20260508003324 | 17 | 12 | 6.4 | 16.1 | 0.00 | 0.00 | 0.00 | 10 | 1024.7 |
| 20260508001838 | 18 | 193 | 8.0 | 22.5 | 0.00 | 0.00 | 0.00 | 10 | 1024.6 |
| 20260508000327 | 18 | 291 | 9.7 | 19.3 | 0.00 | 0.00 | 0.00 | 11 | 1024.7 |
| 20260507234819 | 18 | 295 | 8.0 | 17.7 | 0.00 | 0.00 | 0.00 | 11 | 1024.9 |
| 20260507233314 | 18 | 239 | 8.0 | 17.7 | 0.00 | 0.00 | 0.00 | 10 | 1024.9 |
| 20260507231834 | 18 | 252 | 6.4 | 14.5 | 0.00 | 0.00 | 0.00 | 12 | 1024.7 |
| 20260507230327 | 18 | 206 | 6.4 | 22.5 | 0.00 | 0.00 | 0.00 | 11 | 1024.9 |
| 20260507224820 | 18 | 269 | 9.7 | 19.3 | 0.00 | 0.00 | 0.00 | 11 | 1025.1 |
| 20260507223336 | 18 | 251 | 6.4 | 20.9 | 0.00 | 0.00 | 0.00 | 11 | 1025.2 |
| 20260507221822 | 19 | 280 | 3.2 | 14.5 | 0.00 | 0.00 | 0.00 | 12 | 1025.2 |
| 20260507220317 | 18 | 249 | 8.0 | 20.9 | 0.00 | 0.00 | 0.00 | 12 | 1025.3 |
| 20260507214830 | 18 | 244 | 4.8 | 17.7 | 0.00 | 0.00 | 0.00 | 9 | 1025.5 |
| 20260507213325 | 18 | 173 | 11.3 | 24.1 | 0.00 | 0.00 | 0.00 | 12 | 1025.7 |
| 20260507211818 | 18 | 166 | 8.0 | 20.9 | 0.00 | 0.00 | 0.00 | 13 | 1026.0 |
| 20260507210331 | 18 | 263 | 8.0 | 17.7 | 0.00 | 0.00 | 0.00 | 10 | 1026.1 |
| 20260507204824 | 17 | 309 | 3.2 | 25.7 | 0.00 | 0.00 | 0.00 | 13 | 1026.3 |
| 20260507203318 | 17 | 182 | 6.4 | 17.7 | 0.00 | 0.00 | 0.00 | 14 | 1026.4 |
| 20260507201830 | 17 | 185 | 6.4 | 14.5 | 0.00 | 0.00 | 0.00 | 14 | 1026.5 |
| 20260507200324 | 16 | 276 | 6.4 | 19.3 | 0.00 | 0.00 | 0.00 | 13 | 1026.6 |
| 20260507194818 | 16 | 266 | 6.4 | 16.1 | 0.00 | 0.00 | 0.00 | 14 | 1026.9 |
| 20260507193314 | 16 | 187 | 6.4 | 19.3 | 0.00 | 0.00 | 0.00 | 17 | 1026.9 |
| 20260507191848 | 15 | 243 | 6.4 | 17.7 | 0.00 | 0.03 | 0.00 | 19 | 1027.0 |
| 20260507190320 | 15 | 260 | 6.4 | 19.3 | 0.00 | 0.03 | 0.00 | 24 | 1026.9 |
| 20260507184813 | 14 | 204 | 8.0 | 16.1 | 0.00 | 0.03 | 0.00 | 19 | 1027.0 |
| 20260507183329 | 13 | 285 | 1.6 | 16.1 | 0.00 | 0.03 | 0.00 | 18 | 1027.0 |
| 20260507181843 | 13 | 204 | 11.3 | 17.7 | 0.00 | 0.05 | 0.00 | 19 | 1027.1 |
| 20260507180315 | 13 | 179 | 4.8 | 16.1 | 0.00 | 0.05 | 0.00 | 21 | 1027.2 |
| 20260507174825 | 13 | 233 | 9.7 | 16.1 | 0.00 | 0.05 | 0.00 | 21 | 1027.3 |
| 20260507173325 | 12 | 226 | 8.0 | 11.3 | 0.00 | 0.05 | 0.00 | 22 | 1027.6 |
| 20260507171817 | 11 | 173 | 3.2 | 19.3 | 0.00 | 0.10 | 0.00 | 26 | 1027.7 |
| 20260507170355 | 11 | 149 | 8.0 | 16.1 | 0.00 | 0.10 | 0.00 | 27 | 1027.7 |
| 20260507164832 | 10 | 179 | 8.0 | 14.5 | 0.00 | 0.10 | 0.00 | 30 | 1027.7 |
| 20260507163320 | 9 | 174 | 6.4 | 16.1 | 0.00 | 0.10 | 0.00 | 30 | 1027.8 |
| 20260507161820 | 8 | 183 | 4.8 | 16.1 | 0.00 | 0.20 | 0.00 | 29 | 1027.8 |
| 20260507160334 | 8 | 213 | 3.2 | 12.9 | 0.00 | 0.20 | 0.00 | 31 | 1027.7 |
| 20260507154826 | 7 | 192 | 3.2 | 8.0 | 0.00 | 0.20 | 0.00 | 31 | 1027.5 |
| 20260507153314 | 7 | 181 | 4.8 | 12.9 | 0.00 | 0.20 | 0.00 | 35 | 1027.6 |
| 20260507151827 | 6 | 194 | 6.4 | 14.5 | 0.00 | 0.33 | 0.00 | 35 | 1027.5 |
| 20260507150322 | 5 | 220 | 3.2 | 11.3 | 0.00 | 0.33 | 0.00 | 38 | 1027.7 |
| 20260507144814 | 4 | 197 | 1.6 | 8.0 | 0.00 | 0.33 | 0.00 | 36 | 1027.6 |
| 20260507143330 | 1 | 54 | 0.0 | 4.8 | 0.00 | 0.33 | 0.00 | 45 | 1027.3 |
| 20260507141822 | -1 | 54 | 0.0 | 0.0 | 0.00 | 0.33 | 0.00 | 66 | 1027.3 |
| 20260507140316 | -3 | 54 | 0.0 | 0.0 | 0.00 | 0.33 | 0.00 | 77 | 1027.2 |
| 20260507134831 | -4 | 54 | 0.0 | 0.0 | 0.00 | 0.33 | 0.00 | 80 | 1027.2 |
| 20260507133326 | -5 | 54 | 0.0 | 0.0 | 0.00 | 0.33 | 0.00 | 79 | 1027.2 |
| 20260507131813 | -5 | 54 | 0.0 | 0.0 | 0.00 | 0.33 | 0.00 | 77 | 1027.2 |
| 20260507130327 | -5 | 54 | 0.0 | 0.0 | 0.00 | 0.33 | 0.00 | 77 | 1027.2 |
| 20260507124828 | -5 | 54 | 0.0 | 0.0 | 0.00 | 0.33 | 0.00 | 75 | 1027.0 |
| 20260507123316 | -5 | 54 | 3.2 | 4.8 | 0.00 | 0.33 | 0.00 | 75 | 1027.1 |
| 20260507121836 | -5 | 54 | 0.0 | 0.0 | 0.00 | 0.33 | 0.00 | 74 | 1027.3 |
| 20260507120323 | -4 | 54 | 0.0 | 0.0 | 0.00 | 0.33 | 0.00 | 73 | 1027.4 |
| 20260507114817 | -4 | 54 | 0.0 | 4.8 | 0.00 | 0.33 | 0.00 | 71 | 1027.2 |
| 20260507113317 | -3 | 54 | 0.0 | 0.0 | 0.00 | 0.33 | 0.00 | 70 | 1027.1 |
| 20260507111847 | -3 | 54 | 3.2 | 6.4 | 0.00 | 0.33 | 0.00 | 70 | 1027.2 |
| 20260507110325 | -3 | 54 | 3.2 | 4.8 | 0.00 | 0.33 | 0.00 | 66 | 1026.9 |
| 20260507104819 | -2 | 54 | 3.2 | 8.0 | 0.00 | 0.33 | 0.00 | 64 | 1026.9 |
| 20260507103314 | -2 | 56 | 6.4 | 9.7 | 0.00 | 0.33 | 0.00 | 61 | 1026.7 |
| 20260507101827 | -2 | 54 | 4.8 | 11.3 | 0.00 | 0.33 | 0.00 | 62 | 1026.7 |
| 20260507100321 | -2 | 54 | 4.8 | 8.0 | 0.00 | 0.33 | 0.00 | 61 | 1026.6 |
| 20260507094815 | -1 | 59 | 6.4 | 14.5 | 0.00 | 0.33 | 0.00 | 59 | 1026.6 |
| 20260507093331 | -1 | 58 | 8.0 | 14.5 | 0.00 | 0.33 | 0.00 | 59 | 1026.4 |
| 20260507091822 | -1 | 37 | 6.4 | 14.5 | 0.00 | 0.33 | 0.00 | 59 | 1026.4 |
| 20260507090315 | -2 | 28 | 6.4 | 11.3 | 0.00 | 0.33 | 0.00 | 61 | 1026.5 |
| 20260507084830 | -2 | 38 | 4.8 | 11.3 | 0.00 | 0.33 | 0.00 | 62 | 1026.5 |
| 20260507083325 | -3 | 29 | 3.2 | 11.3 | 0.00 | 0.33 | 0.00 | 71 | 1026.7 |
| 20260507081818 | -3 | 40 | 0.0 | 0.0 | 0.00 | 0.33 | 0.00 | 72 | 1026.9 |
| 20260507080312 | -2 | 40 | 0.0 | 0.0 | 0.00 | 0.33 | 0.00 | 69 | 1026.8 |
| 20260507074826 | -2 | 40 | 0.0 | 9.7 | 0.00 | 0.33 | 0.00 | 68 | 1026.9 |
| 20260507073322 | -3 | 48 | 3.2 | 11.3 | 0.00 | 0.33 | 0.00 | 70 | 1026.9 |
| 20260507071835 | -3 | 170 | 0.0 | 6.4 | 0.00 | 0.33 | 0.00 | 73 | 1026.9 |
| 20260507070330 | -3 | 170 | 0.0 | 4.8 | 0.00 | 0.33 | 0.00 | 72 | 1026.8 |
| 20260507064815 | -3 | 171 | 0.0 | 4.8 | 0.00 | 0.33 | 0.00 | 73 | 1026.6 |
| 20260507063339 | -3 | 171 | 0.0 | 4.8 | 0.00 | 0.33 | 0.00 | 71 | 1026.5 |
| 20260507061831 | -3 | 171 | 0.0 | 4.8 | 0.00 | 0.33 | 0.33 | 71 | 1026.5 |
| 20260507060318 | -2 | 171 | 0.0 | 0.0 | 0.00 | 0.33 | 0.33 | 69 | 1026.6 |
| 20260507054840 | -2 | 171 | 0.0 | 0.0 | 0.00 | 0.33 | 0.33 | 68 | 1026.6 |
| 20260507053335 | -2 | 171 | 0.0 | 0.0 | 0.00 | 0.33 | 0.33 | 64 | 1026.4 |
| 20260507051821 | -1 | 171 | 0.0 | 3.2 | 0.00 | 0.36 | 0.33 | 61 | 1026.2 |
| 20260507050316 | -1 | 171 | 0.0 | 8.0 | 0.00 | 0.36 | 0.33 | 59 | 1026.1 |
| 20260507044814 | 0 | 171 | 0.0 | 6.4 | 0.00 | 0.36 | 0.33 | 55 | 1026.1 |